Location: Unspecified
(0.0000°N, 0.0000°E)
Time: 01:56:40
(UTC+00:00)

SR - Pass Details

Date: 03 October 2020
Orbit: 581 x 874 km, 66.7° (Epoch: 25 October)

Event Time Altitude Azimuth Distance (km) Brightness Sun altitude
Rises 18:24:14 0° 346° (NNW) 3,196 ? -8.8°
Reaches altitude 10° 18:26:33 10° 348° (NNW) 2,317 ? -9.4°
Maximum altitude 18:31:53 67° 71° (ENE) 882 ? -10.7°
Drops below altitude 10° 18:37:36 10° 153° (SSE) 2,482 ? -12.2°
Sets 18:40:09 0° 155° (SSE) 3,441 ? -12.8°
